Track STARLINK-1349 now! 10-day predictions STARLINK-1349 is classified as:
1 45587U 20025BJ 21027.11599700 .00003765 00000-0 27174-3 0 9997 2 45587 53.0005 180.4633 0001488 106.2124 253.9028 15.06371295 43427